Weather History for Safford, AZ

Change the Weather History Date:

Saturday, September 15, 2012

  Actual Average Record
Temperature  
Mean Temperature 70 °F -  
Max Temperature 82 °F 91 °F 101 °F (1956)
Min Temperature 57 °F 60 °F 42 °F (1950)
Cooling Degree Days 4    
Growing Degree Days 20 (Base 50)    
Moisture  
Dew Point 43 °F    
Average Humidity 42    
Maximum Humidity 67    
Minimum Humidity 19    
Precipitation  
Precipitation 0.00 in - - ()
Sea Level Pressure  
Sea Level Pressure 30.09 in    
Wind  
Wind Speed 7 mph (SE)    
Max Wind Speed 14 mph    
Max Gust Speed 22 mph    
Visibility 10 miles    
Events      
Averages and records for this station are not official NWS values.
T = Trace of Precipitation, MM = Missing Value Source: NWS Daily Summary

Daily Weather History Graph

Daily Weather History Graph

Search for Another Location

Airport:

Trip Planner

Search our weather history database for the weather conditions in past years. The results will help you decide how hot, cold, wet, or windy it might be!

Date:

Astronomy

Sep. 15, 2012 Rise Set
Actual Time 6:02 AM MST 6:23 PM MST
Civil Twilight 5:37 AM MST 6:48 PM MST
Nautical Twilight 5:08 AM MST 7:17 PM MST
Astronomical Twilight 4:39 AM MST 7:46 PM MST
Moon 5:35 AM MST (9/15) 5:59 PM MST (9/15)
Length of Visible Light 13h 10m
Length of Day
12h 21m
Waning Crescent, 0% of the Moon is Illuminated
Sep 15
Waning Crescent
Sep 15
New
Sep 22
First Quarter
Sep 29
Full
Oct 8
Last Quarter

Hourly Weather History & Observations

Time (MST) Temp. Dew Point Humidity Pressure Visibility Wind Dir Wind Speed Gust Speed Precip Events Conditions
12:51 AM 64.0 °F 48.9 °F 58% 30.15 in 10.0 mi East 13.8 mph 21.9 mph N/A   Clear
1:51 AM 63.0 °F 46.0 °F 54% 30.14 in 10.0 mi ESE 9.2 mph - N/A   Clear
2:51 AM 61.0 °F 46.0 °F 58% 30.14 in 10.0 mi SSE 6.9 mph - N/A   Clear
3:51 AM 59.0 °F 46.0 °F 62% 30.15 in 10.0 mi SE 5.8 mph - N/A   Clear
4:51 AM 57.9 °F 46.0 °F 65% 30.16 in 10.0 mi SSE 9.2 mph - N/A   Clear
5:51 AM 57.0 °F 46.0 °F 67% 30.17 in 10.0 mi SE 8.1 mph - N/A   Clear
6:51 AM 59.0 °F 46.9 °F 64% 30.18 in 10.0 mi ESE 8.1 mph - N/A   Clear
7:51 AM 63.0 °F 48.0 °F 58% 30.18 in 10.0 mi SSE 8.1 mph - N/A   Clear
8:51 AM 66.0 °F 46.9 °F 50% 30.18 in 10.0 mi SE 6.9 mph - N/A   Clear
9:51 AM 70.0 °F 46.0 °F 42% 30.18 in 10.0 mi SE 4.6 mph - N/A   Clear
10:51 AM 73.9 °F 43.0 °F 33% 30.14 in 10.0 mi SSE 10.4 mph - N/A   Clear
11:51 AM 78.1 °F 43.0 °F 29% 30.12 in 10.0 mi Variable 5.8 mph - N/A   Clear
12:51 PM 77.0 °F 39.9 °F 26% 30.09 in 10.0 mi Calm Calm - N/A   Clear
1:51 PM 81.0 °F 39.0 °F 22% 30.05 in 10.0 mi SSW 10.4 mph 16.1 mph N/A   Clear
2:51 PM 81.0 °F 37.9 °F 21% 30.01 in 10.0 mi Variable 5.8 mph - N/A   Clear
3:51 PM 82.0 °F 37.0 °F 20% 30.00 in 10.0 mi SSE 4.6 mph - N/A   Clear
4:51 PM 82.0 °F 36.0 °F 19% 29.99 in 10.0 mi Calm Calm - N/A   Clear
5:51 PM 82.0 °F 36.0 °F 19% 29.98 in 10.0 mi Calm Calm - N/A   Clear
6:51 PM 77.0 °F 39.9 °F 26% 29.99 in 10.0 mi Calm Calm - N/A   Clear
7:51 PM 72.0 °F 43.0 °F 35% 30.00 in 10.0 mi Calm Calm - N/A   Clear
8:51 PM 69.1 °F 43.0 °F 39% 30.01 in 10.0 mi SE 3.5 mph - N/A   Clear
9:51 PM 66.9 °F 43.0 °F 42% 30.03 in 10.0 mi East 3.5 mph - N/A   Clear
10:51 PM 64.9 °F 44.1 °F 47% 30.03 in 10.0 mi ENE 5.8 mph - N/A   Clear
11:51 PM 64.0 °F 44.1 °F 48% 30.02 in 10.0 mi SE 5.8 mph - N/A   Clear